Starlink 35311

operational
NORAD ID: 66032 Int'l Des: 2025-232 Owner: SPXS Country: US Constellation: starlink
LEOCIRCULAR

Über Starlink 35311

Beschreibung wird geladen...

Live-Position

3D-Globus wird geladen...

Nächste Überflüge

Höhenverlauf

Altitude vs Time

uPlot chart will show altitude changes over time

Zweizeiliger Elementsatz

1 66032C 25232AD 25290.41090278 .01007300 00000+0 13828-2 0 2908
2 66032 53.1575 58.9174 0008014 286.4747 206.3526 16.04366618 16
Epoch: 17. Okt. 2025 • Age: 63 hours

Aktueller Status

Höhe 248.6 km
Geschwindigkeit 7.76 km/s
Subsatellitenpunkt 13.18°N, 162.23°E
Startdatum 16. Okt. 2025
Alter 3 days
Typ internet

Technische Details

Klassifizierung Payload
Masse 575.00 kg
Trockenmasse 530.00 kg
Gesamtmasse 575.00 kg
Länge 0.30 m
Durchmesser 4.10 m
Spannweite 29.00 m
Form Box + pan
Hersteller SPXS
Bus-Typ Starlink V2MO
Phasenstatus In Orbit
Besitzer/Staat SPXS/US

Große Konstellationen

Loading constellations...